Weather History for Pine Bluff, AR

Change the Weather History Date:

Tuesday, February 19, 2013

  Actual Average Record
Temperature  
Mean Temperature 44 °F 47 °F  
Max Temperature 54 °F 57 °F 80 °F (1986)
Min Temperature 34 °F 37 °F 10 °F (1910)
Degree Days  
Heating Degree Days 21 18  
Month to date heating degree days 327 378  
Since 1 July heating degree days 2001 2236  
Cooling Degree Days 0 0  
Month to date cooling degree days 0 0  
Year to date cooling degree days 5 1  
Moisture  
Dew Point 30 °F    
Average Humidity 57    
Maximum Humidity 85    
Minimum Humidity 29    
Precipitation  
Precipitation 0.00 in 0.15 in 1.57 in (1996)
Month to date precipitation 2.25 2.59  
Year to date precipitation 9.18 6.35  
Snow  
Snow 0.00 in 0.00 in 2.00 in (1905)
Month to date snowfall 0.0 0.6  
Since 1 July snowfall 2.1 3.1  
Snow Depth 0.00 in    
Sea Level Pressure  
Sea Level Pressure 30.23 in    
Wind  
Wind Speed 6 mph (NNW)    
Max Wind Speed 15 mph    
Max Gust Speed 21 mph    
Visibility 10 miles    
Events      
T = Trace of Precipitation, MM = Missing Value Source: NWS Daily Summary

Daily Weather History Graph

Daily Weather History Graph

Search for Another Location

Airport:

Trip Planner

Search our weather history database for the weather conditions in past years. The results will help you decide how hot, cold, wet, or windy it might be!

Date:

Astronomy

Feb. 19, 2013 Rise Set
Actual Time 6:48 AM CST 5:55 PM CST
Civil Twilight 6:22 AM CST 6:20 PM CST
Nautical Twilight 5:53 AM CST 6:50 PM CST
Astronomical Twilight 5:24 AM CST 7:19 PM CST
Moon 12:35 PM CST (2/19) 2:12 AM CST (2/19)
Length of Visible Light 11h 58m
Length of Day
11h 07m
Waxing Gibbous, 67% of the Moon is Illuminated
Feb 19
Waxing Gibbous
Feb 25
Full
Mar 4
Last Quarter
Mar 11
New
Mar 19
First Quarter

Hourly Weather History & Observations

Time (CST) Temp. Windchill Dew Point Humidity Pressure Visibility Wind Dir Wind Speed Gust Speed Precip Events Conditions
12:53 AM 46.9 °F - 39.0 °F 74% 30.05 in 10.0 mi WNW 6.9 mph - N/A   Clear
1:53 AM 46.0 °F 40.6 °F 37.0 °F 71% 30.07 in 10.0 mi NW 11.5 mph - N/A   Clear
2:53 AM 43.0 °F 37.2 °F 35.1 °F 74% 30.10 in 10.0 mi NW 10.4 mph - N/A   Clear
3:53 AM 41.0 °F 37.1 °F 34.0 °F 76% 30.12 in 10.0 mi NW 5.8 mph - N/A   Clear
4:53 AM 41.0 °F 34.7 °F 32.0 °F 70% 30.17 in 10.0 mi NNW 10.4 mph - N/A   Clear
5:53 AM 37.9 °F 31.5 °F 28.9 °F 70% 30.20 in 10.0 mi North 9.2 mph - N/A   Clear
6:53 AM 36.0 °F 31.1 °F 28.9 °F 76% 30.22 in 10.0 mi North 5.8 mph - N/A   Clear
7:53 AM 39.0 °F 34.0 °F 27.0 °F 62% 30.27 in 10.0 mi North 6.9 mph - N/A   Clear
8:53 AM 39.9 °F 32.5 °F 26.1 °F 58% 30.30 in 10.0 mi NNW 12.7 mph - N/A   Clear
9:53 AM 42.1 °F 36.6 °F 25.0 °F 51% 30.31 in 10.0 mi North 9.2 mph - N/A   Clear
10:53 AM 44.1 °F 39.5 °F 26.1 °F 49% 30.33 in 10.0 mi North 8.1 mph - N/A   Clear
12:53 PM 50.0 °F - 28.0 °F 43% 30.30 in 10.0 mi ENE 3.5 mph - N/A   Clear
1:53 PM 52.0 °F - 28.0 °F 40% 30.28 in 10.0 mi North 5.8 mph - N/A   Clear
2:53 PM 53.6 °F - 26.6 °F 35% 30.27 in 10.0 mi NNW 4.6 mph - N/A   Clear
3:53 PM 54.0 °F - 23.0 °F 30% 30.25 in 10.0 mi North 6.9 mph - N/A   Clear
4:53 PM 53.1 °F - 28.0 °F 38% 30.25 in 10.0 mi North 8.1 mph - N/A   Clear
6:53 PM 46.9 °F - 28.9 °F 50% 30.27 in 10.0 mi Calm Calm - N/A   Clear
7:53 PM 43.0 °F - 32.0 °F 65% 30.27 in 10.0 mi Calm Calm - N/A   Clear
8:53 PM 39.9 °F - 33.1 °F 77% 30.27 in 10.0 mi Calm Calm - N/A   Clear
9:53 PM 37.9 °F - 32.0 °F 79% 30.28 in 10.0 mi Calm Calm - N/A   Clear
10:53 PM 37.0 °F - 33.1 °F 86% 30.28 in 10.0 mi Calm Calm - N/A   Clear
11:53 PM 36.0 °F - 33.1 °F 89% 30.29 in 10.0 mi Calm Calm - N/A   Clear